Location: Aciura
(46.3333°N, 22.4833°E)
Time: 13:19:57
(UTC+00:00)

Daily predictions for brighter satellites

Satellite Brightness Start Highest point End
(mag) Time Altitude Azimuth Time Altitude Azimuth Time Altitude Azimuth
Gbstr 26 Del rocket 4.1 18:40:31 10° WNW 18:43:59 35° N 18:47:35 10° ENE
USA-17 4.5 18:42:40 10° SW 18:46:38 88° NW 18:49:49 10° NE
Helios 1A Rocket 4.1 18:43:28 10° S 18:47:19 43° W 18:51:13 10° NNW
USA 32 4.3 18:42:38 10° N 18:47:53 78° W 18:53:06 10° S
Cosmos 2369 3.9 18:49:30 10° NNW 18:55:07 60° ENE 19:00:41 10° SE
COSMOS 2406 3.2 18:51:13 10° SSW 18:56:50 70° ESE 19:02:32 10° NNE
Cosmos 1606 3.3 18:53:55 10° N 18:57:30 40° ENE 19:01:05 10° SSE
ARIANE 5 R/B 4.0 18:54:18 10° ESE 18:57:56 25° ENE 19:01:33 10° N
Cosmos 1656 4.4 18:53:21 10° NW 18:58:49 52° WSW 19:04:11 10° S
Cosmos 2221 2.6 18:55:34 10° N 18:59:51 64° E 19:04:07 10° SSE
Cosmos 1437 2.4 18:57:27 10° NNW 19:00:14 78° WSW 19:02:58 10° S
Cosmos 44 Rocket 3.5 18:58:31 10° SSW 19:03:34 56° ESE 19:08:42 10° NE
Cosmos 1980 Rocket 2.6 18:59:08 10° NNW 19:04:38 53° ENE 19:09:48 12° SE
OBJECT-B 3.6 19:02:31 10° SW 19:04:45 17° W 19:07:00 10° NW
Cosmos 2098 Rocket 3.1 19:05:40 11° SSE 19:08:09 30° E 19:11:04 10° NNE
USA 234 4.5 19:03:12 10° ENE 19:09:09 38° NNE 19:15:06 10° NW
SL-12 R/B (Aux Motor) 4.3 19:07:15 10° W 19:09:29 73° SSW 19:14:44 10° ESE
Cosmos 2279 Rocket 4.2 19:04:24 10° N 19:10:37 78° W 19:16:47 10° S
CZ-2C R/B 4.1 19:06:29 10° NNE 19:10:50 43° E 19:15:06 10° S
Cosmos 2322 Rocket 4.1 19:08:09 10° N 19:11:59 18° NE 19:15:48 10° E
IGS 5A 3.7 19:09:45 10° S 19:13:53 71° W 19:18:03 10° NNW
SPOT 5 3.7 19:16:24 14° ESE 19:19:32 30° ENE 19:23:21 10° N
SPOT 1/Viking Rocket 3.6 19:14:45 10° SSE 19:19:55 74° ENE 19:25:08 10° N
Cosmos 1825 3.6 19:16:50 10° SSW 19:20:23 39° WNW 19:23:57 10° N
BREEZE-M DEB (TANK) 2.3 19:19:17 10° WNW 19:22:06 82° NNE 19:29:08 10° ESE
Ariane Rocket 4.2 19:22:08 10° SSW 19:26:54 40° W 19:31:40 10° NNW
MetOp-B 4.2 19:22:36 10° SSE 19:27:58 84° WSW 19:33:22 10° NNW
Cosmos 371 Rocket 3.6 19:23:29 10° NNW 19:28:12 52° ENE 19:31:42 17° SE
Cosmos 2151 3.4 19:29:08 15° SSE 19:32:19 42° E 19:36:22 10° NNE
Cosmos 2058 4.1 19:30:46 10° SSW 19:34:46 45° WNW 19:38:49 10° N
Terra 2.7 19:33:35 17° ESE 19:36:39 34° ENE 19:40:56 10° N
ISS -2.7 19:33:54 10° WNW 19:37:09 42° NNE 19:40:01 12° E
SL-16 R/B 3.4 19:33:03 10° N 19:38:05 31° NE 19:42:12 14° ESE
Nadezhda 4 Rocket 4.0 19:34:55 10° S 19:41:04 85° E 19:47:19 10° N
USA 276 3.3 19:42:08 10° WNW 19:45:09 40° N 19:48:10 10° ENE
GP-B 3.4 19:42:23 10° NNE 19:46:43 50° E 19:49:21 22° SSE
Cosmos 1633 2.9 19:43:40 10° SSW 19:47:14 65° W 19:50:51 10° N
Meteor 2-19 Rocket 4.4 19:42:57 11° S 19:48:50 67° E 19:54:51 10° NNE
Cosmos 1151 Rocket 4.1 19:47:23 10° N 19:51:14 30° ENE 19:53:06 21° ESE
Cosmos 1076 Rocket 3.8 19:47:46 10° SSW 19:52:04 68° W 19:56:26 10° N
Cosmos 1271 Rocket 3.3 19:48:44 10° N 19:52:34 45° ENE 19:54:22 26° SE
RESURS DK-1 2.6 19:55:24 10° SW 19:59:32 71° WNW 20:03:43 10° NNE
Cosmos 1697 Rocket 4.1 19:56:58 10° NW 20:01:56 32° WSW 20:06:53 10° SSW
H-2A R/B 4.4 19:59:44 10° NE 20:03:25 29° E 20:04:18 26° ESE
Cosmos 332 Rocket 3.9 19:58:58 10° NNW 20:03:51 67° ENE 20:06:27 27° SE
ATLAS 2AS CENTAUR R/B 3.5 19:56:36 10° SW 20:04:29 66° NW 20:12:10 10° NE
Meteor 1-26 Rocket 4.4 19:58:36 10° N 20:04:37 70° ENE 20:08:15 24° SSE
ERBS 3.3 20:01:43 10° WNW 20:04:38 32° SW 20:05:29 27° SSW
Okean 3 Rocket 4.4 20:03:47 27° SE 20:05:16 34° E 20:09:20 10° NNE
Cosmos 1428 Rocket 4.5 20:01:44 18° S 20:06:22 66° E 20:12:26 10° NNE
Resurs 01 Rocket 3.8 20:03:43 10° SW 20:07:10 22° W 20:10:39 10° NW
Cosmos 2082 Rocket 2.8 20:06:06 10° SW 20:11:38 59° WNW 20:17:15 10° NNE
Cosmos 2278 4.0 20:06:20 10° NNW 20:11:55 62° WSW 20:15:27 23° S
Cosmos 1553 Rocket 4.4 20:06:16 10° N 20:12:07 47° ENE 20:15:15 26° SE
Cosmos 1933 3.4 20:09:03 10° NNW 20:13:07 79° W 20:15:06 29° S
USA 267 3.3 20:10:58 10° ENE 20:17:25 57° SE 20:23:50 10° SW
ATLAS 3B R/B 2.9 20:13:40 10° NW 20:20:44 70° WSW 20:25:11 26° SSE
Cosmos 2333 Rocket 4.2 20:19:10 10° N 20:23:10 19° NE 20:27:08 10° E
ERS-1 Rocket 3.2 20:20:49 24° S 20:23:48 65° WSW 20:28:50 10° NNW
Cosmos 1680 Rocket 3.9 20:23:12 31° SSE 20:25:09 45° ESE 20:30:10 10° NNE
Spot 2 Rocket 4.4 20:23:40 17° SSW 20:27:17 43° W 20:32:10 10° NNW
Cosmos 2360 Rocket 3.3 20:22:14 10° NNW 20:27:21 34° NE 20:30:27 20° ESE
BREEZE-M DEB (TANK) 4.0 20:24:12 10° WSW 20:28:32 89° SSE 20:46:59 10° ENE
CZ-4B DEB 4.1 20:29:15 66° SE 20:29:37 81° ENE 20:32:47 10° N
Gbstr 26 Del rocket 3.1 20:27:26 10° WNW 20:31:12 62° NNE 20:33:11 28° E
ARIANE 5 R/B 3.7 20:31:34 20° SSW 20:34:11 39° W 20:38:24 10° NNW
Cosmos 1408 Rocket 4.2 20:36:10 35° ESE 20:36:48 37° E 20:40:50 10° NNE
S3M 4.4 20:33:43 10° N 20:39:57 53° ENE 20:42:47 31° SE
Cosmos 158 Rocket 4.3 20:35:23 10° SSW 20:40:23 66° WNW 20:45:39 10° NNE
Meteor 2-14 Rocket 4.5 20:38:16 31° SSE 20:41:17 66° E 20:47:23 10° NNE
Meteor 2-3 Rocket 4.3 20:38:55 13° SSW 20:43:51 58° WNW 20:49:29 10° N
Cosmos 1812 2.7 20:40:29 10° N 20:44:21 67° E 20:44:55 57° SE
Cosmos 1862 3.5 20:44:01 49° ESE 20:44:26 51° E 20:48:19 10° NNE
Cosmos 220 Rocket 4.3 20:41:44 10° NNW 20:46:00 56° ENE 20:47:03 43° ESE
Cosmos 1980 Rocket 3.7 20:43:43 10° NW 20:48:18 26° WSW 20:51:34 16° SSW
Cosmos 304 Rocket 4.3 20:45:18 10° NNW 20:49:57 50° WSW 20:51:39 34° SSW
USA 234 3.4 20:46:59 21° ESE 20:51:36 71° NNE 20:58:08 10° NW
Cosmos 1782 3.6 20:49:38 10° NNW 20:53:30 46° W 20:54:42 34° SW
BREEZE-M DEB (TANK) 2.5 20:49:45 10° WNW 20:55:19 62° N 20:56:07 42° ENE
Cosmos 2322 Rocket 2.1 20:51:15 10° NNW 20:56:55 85° ENE 20:58:58 41° SSE
SPOT 5 4.1 20:55:38 20° SW 20:57:38 28° W 21:01:22 10° NW
Cosmos 1515 Rocket 3.7 20:53:37 10° N 20:58:03 63° E 20:58:52 52° SE
Cosmos 1624 Rocket 4.0 20:58:28 10° NNW 21:03:41 73° ENE 21:05:14 46° SE
Cosmos 1766 Rocket 4.3 21:07:18 30° SW 21:09:08 50° WNW 21:13:26 10° N
Meteor 2-6 Rocket 4.1 21:05:30 10° NNW 21:10:57 75° W 21:12:44 43° S
ALOS 2 3.7 21:10:14 30° E 21:11:04 32° ENE 21:14:59 10° N
ISS -2.5 21:10:45 10° WNW 21:12:58 34° W 21:12:58 34° W
Terra 3.2 21:12:28 22° SW 21:14:24 30° W 21:18:36 10° NW
Cosmos 1420 Rocket 4.2 21:12:51 10° NNW 21:18:10 65° ENE 21:19:38 46° SE
Cosmos 2237 4.1 21:12:48 10° NNW 21:18:34 86° WSW 21:20:16 48° SSE
COBE Rocket 3.7 21:19:40 60° SSE 21:20:30 81° ENE 21:25:11 10° N
Cosmos 1328 Rocket 4.4 21:16:19 10° NNW 21:20:32 43° W 21:21:36 36° SW
Cosmos 2084 4.1 21:21:57 40° E 21:21:57 40° E 21:24:59 10° NE
COSMOS 2428 4.1 21:16:07 10° NNW 21:21:09 31° NE 21:24:10 20° E
USA 276 3.4 21:18:23 10° WNW 21:20:23 36° WNW 21:20:23 36° WNW
SL-16 R/B 2.7 21:16:57 10° NW 21:22:24 49° WSW 21:24:03 38° SSW
Cosmos 2219 Rocket 3.2 21:18:46 10° NNW 21:23:58 37° NE 21:26:26 25° E
Meteor 1-27 Rocket 3.8 21:19:29 10° N 21:25:05 69° ENE 21:26:39 47° SE
NOSS 3-1 (C) 4.4 21:24:35 10° NW 21:31:53 63° NE 21:37:20 24° ESE
NOSS 2-1 (E) 4.3 21:33:37 31° NE 21:33:37 31° NE 21:35:36 10° NE
Cosmos 1452 Rocket 4.1 21:28:29 10° NNW 21:33:34 46° ENE 21:35:04 36° ESE
Cosmos 2285 Rocket 4.4 21:33:06 10° NNW 21:39:17 53° ENE 21:41:42 35° ESE
Cosmos 1805 Rocket 3.7 21:42:14 57° E 21:42:16 57° E 21:46:39 10° NNE
Cosmos 2056 Rocket 3.8 21:37:33 10° NNW 21:42:48 55° WSW 21:43:49 47° SW
Cosmos 2315 Rocket 3.9 21:37:40 10° N 21:44:01 84° E 21:45:57 48° SSE
IRIDIUM 104 4.2 21:38:51 10° N 21:44:06 85° W 21:45:08 59° S
IRIDIUM 114 4.4 21:48:00 10° N 21:53:13 71° W 21:54:15 55° SSW
Cosmos 1515 4.5 21:50:27 10° N 21:53:42 43° ENE 21:53:42 43° ENE
Cosmos 1500 Rocket 3.8 21:53:40 56° WSW 21:54:08 60° W 21:58:31 10° N
Meteor 1-20 Rocket 4.3 21:54:55 53° SE 21:55:50 60° E 22:01:24 10° NNE
COSMOS 2455 3.0 21:55:35 49° SE 21:56:19 52° ESE 22:02:08 10° NE
USA 267 3.8 21:54:04 10° NE 22:00:26 57° NNW 22:06:48 10° WSW
ATLAS 5 CENTAUR R/B 3.4 21:57:27 10° NNW 22:02:29 39° NE 22:07:16 15° ESE
NOSS 3-1 (A) 4.4 21:56:52 10° NW 22:04:10 62° NE 22:10:13 21° ESE
SL-27 R/B 3.7 22:05:13 36° WNW 22:05:15 36° WNW 22:08:37 10° N
Cosmos 2266 Rocket 4.5 22:03:04 33° SW 22:05:33 52° WNW 22:11:37 10° N
CZ-3B R/B 2.0 21:59:28 10° WNW 22:07:02 80° NNE 22:07:15 75° ENE
Cosmos 2333 Rocket 2.1 22:02:34 10° NNW 22:08:16 89° ENE 22:09:26 58° SSE
Cosmos 1833 4.4 22:06:26 40° SW 22:08:34 70° WNW 22:14:22 10° NNE
Meteor 1-22 4.5 22:08:12 63° S 22:09:08 86° E 22:14:38 10° NNE
COSMOS 2487 3.7 22:11:09 36° NNE 22:11:09 36° NNE 22:13:18 10° NNE
Nimbus 7 Rocket 4.4 22:04:29 10° NNE 22:10:31 67° ESE 22:11:49 53° SSE
Cosmos 2360 Rocket 2.7 22:06:09 10° NW 22:11:28 43° WSW 22:12:12 41° SW
Cosmos 1743 Rocket 4.4 22:11:53 38° W 22:12:35 41° WNW 22:16:50 10° N
Cosmos 2228 Rocket 3.5 22:10:30 10° NNW 22:14:46 50° W 22:14:49 50° W
NOSS 2-1 (C) 4.3 22:16:43 34° NW 22:16:48 34° NW 22:19:58 10° NNE
Cosmos 468 4.4 22:16:44 64° SE 22:17:10 68° ESE 22:22:22 10° NNE
Okean 1 3.6 22:14:51 10° N 22:18:33 62° NE 22:18:33 62° NE
Cosmos 972 Rocket 4.1 22:19:31 53° SW 22:20:45 73° WNW 22:25:54 10° NNE
Meteor 1-25 Rocket 4.1 22:19:56 60° S 22:21:02 90° ESE 22:26:40 10° N
Cosmos 2322 3.6 22:16:59 10° NNW 22:22:42 76° WSW 22:23:41 60° S
Cosmos 1633 Rocket 3.2 22:28:55 65° E 22:28:55 65° E 22:33:06 10° NNE
Cosmos 1745 Rocket 4.4 22:27:28 41° SE 22:28:58 49° E 22:34:59 10° NNE
Cosmos 1666 Rocket 3.5 22:29:15 80° ENE 22:29:15 80° ENE 22:33:36 10° N
Sich 1 3.4 22:32:08 55° W 22:32:17 55° WNW 22:36:35 10° N
Meteor 1-19 Rocket 4.1 22:28:33 10° NNW 22:34:17 86° W 22:35:17 62° S
USA 234 3.6 22:34:19 41° SW 22:34:51 42° SW 22:41:01 10° WNW
Cosmos 2297 Rocket 3.4 22:35:02 26° ESE 22:35:28 26° ESE 22:40:05 10° NE
Cosmos 2237 Rocket 3.1 22:34:04 10° NNW 22:39:30 43° NE 22:42:20 25° ESE
Cosmos 2322 Rocket 4.1 22:37:03 10° WNW 22:40:10 15° W 22:40:46 15° WSW
Meteor 1-14 Rocket 4.3 22:39:28 53° SE 22:40:21 60° E 22:45:52 10° NNE
SAR-Lupe-2 4.2 22:37:05 10° NNE 22:39:58 54° N 22:39:58 54° N
Cosmos 2227 Rocket 3.6 22:45:51 24° ESE 22:46:27 24° ESE 22:50:53 10° NE
ALOS 2 4.0 22:47:37 27° W 22:47:37 27° W 22:51:11 10° NW
Cosmos 1048 Rocket 4.1 22:46:36 55° WSW 22:47:32 66° WNW 22:52:39 10° NNE
APEX 4.3 22:48:24 52° SE 22:49:05 55° ESE 22:55:16 10° NE
Nadezhda 1 Rocket 4.0 22:42:59 10° N 22:49:25 77° E 22:51:20 48° SSE
SL-16 R/B 4.3 22:46:16 10° ESE 22:51:09 26° ENE 22:56:04 10° N
Cosmos 1862 Rocket 3.4 22:47:44 10° N 22:52:01 81° WNW 22:52:01 81° WNW
CZ-2D R/B 4.1 22:49:07 10° NE 22:52:34 17° E 22:54:11 15° ESE
EO 1 Del DPAF 4.3 22:50:27 10° NNE 22:53:19 36° ENE 22:53:19 36° ENE
Cosmos 494 Rocket 3.9 22:53:24 62° SW 22:54:10 75° WNW 22:59:19 10° NNE
Meteor 2-4 Rocket 3.8 22:53:23 10° N 22:59:23 87° E 23:00:49 55° SSE
Thor Agena Rocket 3.4 22:55:16 10° NNE 23:00:20 75° WNW 23:01:06 61° SW
Cosmos 1500 3.8 23:01:52 51° NW 23:01:52 51° NW 23:05:13 10° N
SL-16 R/B 4.0 22:58:46 10° N 23:03:34 27° NE 23:08:20 10° ESE
Cosmos 1302 Rocket 4.2 22:58:59 10° NNW 23:04:11 66° ENE 23:05:33 47° SE
COSMOS 2428 2.9 23:00:11 10° NW 23:05:40 50° WSW 23:06:09 48° SW
Cosmos 1703 Rocket 4.1 23:02:04 10° N 23:06:19 49° ENE 23:06:46 46° E
Cosmos 2219 Rocket 2.8 23:02:46 10° NW 23:07:55 38° WSW 23:08:07 38° WSW
Meteor 1-5 Rocket 4.1 23:13:59 57° S 23:15:13 89° ESE 23:21:04 10° N
Lacrosse 5 2.5 23:29:47 40° SE 23:29:47 40° SE 23:34:26 10° ENE
Cosmos 1743 4.1 23:30:18 28° E 23:30:31 28° E 23:33:50 10° NNE
Cosmos 2242 Rocket 3.4 23:29:57 10° N 23:34:24 86° W 23:34:41 78° SSW
USA 229 DEB 4.1 23:27:41 10° NW 23:34:45 50° WSW 23:36:51 40° SSW
USA 229 4.1 23:27:47 10° NW 23:34:51 51° WSW 23:36:59 40° SSW
Cosmos 2219 3.4 23:33:45 48° SSE 23:35:06 63° ESE 23:40:48 10° NNE
ADEOS Rocket 4.1 23:31:45 13° SE 23:36:04 35° ENE 23:41:00 10° N
Cosmos 1066 Rocket 4.3 23:32:36 10° N 23:38:30 76° E 23:40:42 40° SSE
Cosmos 1340 Rocket 2.8 23:39:00 68° WNW 23:39:00 68° WNW 23:42:46 10° N
COSMOS 2455 4.1 23:38:42 18° W 23:42:29 35° NW 23:47:59 10° NNE
CZ-4C R/B 4.2 23:37:43 10° NNW 23:44:10 39° NE 23:51:40 10° ESE
CZ-4 R/B 3.8 23:42:04 10° NNE 23:47:04 90° E 23:48:10 56° SSW
ATLAS 5 CENTAUR R/B 2.5 23:41:50 10° NW 23:47:22 53° WSW 23:48:42 45° SSW
Cosmos 2333 Rocket 4.1 23:48:47 10° WNW 23:51:25 14° W 23:51:25 14° W
Cosmos 1869 Rocket 3.5 23:51:21 63° SSE 23:52:01 81° E 23:56:31 10° N
Resurs 1-4 Rocket 2.5 23:47:12 10° NNE 23:52:25 53° E 23:54:09 37° SSE
ARGOS Delta rocket 3.7 23:48:43 10° N 23:53:28 70° WNW 23:54:15 57° SW
Cosmos 1378 3.7 23:49:54 10° NNW 23:52:58 46° WNW 23:52:58 46° WNW
Cosmos 1666 4.1 23:54:40 26° WNW 23:54:40 26° WNW 23:57:59 10° NNW
